Vertical_Velocity
-0 -5 -2 0 -1 1 -4 3 -3 2 1 2 -2 2 -3 -0 -1 1 1 -1 -0 -2 2 -3 2 0 2 -3 -2 2 2 -5 -0 -0 1 1 -3 -1 1 -3 1 1 4
3 1 0 3 1 2 5 2 2 -1 4 1 -1 2 2 0 0 4 -1 1 -4 -0 -3 1 2 2 0 0 2 -1 -1 -1 -2 0 -3 -2 2 4 -1 -0 -1 1 -0
3 3 4 8 4 5 6 1 1 2 -0 5 -3 -2 1 2 -1 -1 2 -0 3 1 -6 -0 1 0 -1 0 1 -1 1 0 -1 -1 -3 -0 -4 1 1 -1 -1 1 2
0 -2 2 7 10 3 1 4 2 1 0 1 0 0 0 1 -0 -1 -0 0 2 0 -2 -1 -1 0 -3 -1 1 -1 1 -2 -3 1 -0 -2 -3 -2 -2 -1 -2 -0 -1
-1 -0 6 5 1 1 3 0 2 1 1 1 1 1 1 1 3 -2 1 -1 2 1 -0 -4 -2 -1 -1 2 1 -1 0 -2 -0 2 1 -2 -2 -2 -4 3 0 -1 -1
4 6 -1 0 2 2 3 3 3 3 3 2 -1 -1 0 1 -1 -1 -1 -1 -1 -0 -1 -1 -0 -1 -2 -1 0 1 -0 -0 -1 -1 -1 -1 -2 -2 -6 -4 1 -3 0
0 0 5 3 1 3 3 2 1 1 0 -0 -0 1 1 0 -0 -1 -1 -1 -1 -2 -0 -0 0 -1 -1 -0 3 1 -0 0 -0 -2 -2 -0 -3 -1 -3 -3 -3 -6 7
3 3 4 6 6 4 3 3 2 1 0 0 1 0 1 -0 0 -0 -0 -2 -2 -0 -1 -0 -1 -2 -2 -1 1 -1 -1 1 -1 -2 -1 1 -2 -1 -4 -4 -5 -2 -10
3 5 7 5 5 4 5 4 3 2 1 1 1 0 0 -0 -1 -1 0 0 1 0 -1 -1 -1 -1 -0 1 1 -0 -1 -0 -1 0 -1 -0 -2 -2 -3 -3 -2 -7 -4
-1 4 7 5 2 3 3 2 3 3 2 2 2 2 1 0 1 1 1 0 0 -0 -1 -1 -1 -1 -1 -0 0 -0 -2 1 -1 -1 1 1 -0 -0 -1 -3 -2 -5 -7
1 0 2 4 3 4 4 3 3 3 4 3 3 2 2 2 2 1 1 1 -1 -1 -1 -1 -1 -1 -1 -1 -0 -1 -3 -0 -1 -1 -1 0 -3 -1 -1 -1 -1 -1 -6
-1 4 4 -0 -3 -5 -5 -2 3 1 -1 0 1 2 1 1 1 2 1 -0 -2 -1 -2 -1 -0 -0 -1 -1 -0 -0 -3 -1 -0 -2 -0 2 -3 -0 2 -1 -2 -3 -5
1 -1 -2 1 5 3 2 2 1 2 -1 -2 -0 1 1 0 1 0 -0 -1 -1 -2 -1 0 0 0 0 -2 -2 -1 -1 -2 1 -1 -2 3 -5 0 3 -2 -1 -5 -4
3 3 2 1 -1 4 3 1 -1 -2 -3 -3 -3 -3 -3 -3 -1 -0 -1 -2 -2 -2 -1 -1 -0 -1 -1 -1 -1 -1 1 -0 1 1 0 1 0 0 -2 0 -2 -3 -3
-1 -0 3 4 3 1 -1 -2 -3 -3 -2 -1 -3 -2 -3 1 0 0 -1 -1 -1 -1 -2 -2 -3 -1 -0 -1 -1 -2 -1 -0 0 2 2 -1 1 1 -0 -5 1 -3 -4
-1 -2 -1 0 -0 -1 -1 0 -1 -2 -2 -1 2 -2 0 -1 1 0 -1 -1 -1 -1 -0 1 0 -1 -3 -2 0 0 0 -0 1 1 0 1 -1 -1 -3 -1 -2 -2 -6
-1 0 -1 -3 -3 -1 -1 0 -1 -1 -1 0 1 -0 -1 1 -0 -1 -1 -1 -0 -0 -3 -3 -1 -4 -1 0 0 -2 -0 1 2 0 -0 -0 -1 -2 -1 -1 -4 -1 3
-2 -1 -2 -1 -2 -2 -1 -2 -2 -1 0 1 -0 -0 1 2 -1 -1 -2 -1 -2 -2 -1 -1 -1 -1 -2 -1 0 -1 -1 -0 -1 -1 -1 -3 1 1 -4 -4 -3 4 3
-1 -2 -2 -2 0 0 -2 -5 0 1 -0 0 1 0 -1 -1 -0 0 -1 0 0 0 -1 -0 -1 -1 -3 -1 -2 -2 -2 -0 -1 -1 -2 -4 -2 1 -1 -5 -4 2 9
-2 -2 -2 -3 -3 2 -2 -3 1 -1 -1 4 1 -2 -1 2 2 -2 -1 1 0 -0 -1 -1 -1 -2 -1 -1 -2 -3 -3 1 -1 -0 -1 -1 -3 -1 -2 -6 -7 -2 9
1 -0 -3 -3 0 -1 -3 -2 -2 1 6 -4 1 -1 -0 3 -0 -2 -1 -1 -1 -2 -2 -1 -0 -3 -3 -1 -2 -2 -2 -4 2 -0 0 -0 -1 -0 -0 -3 -3 -4 -0
2 3 -2 1 2 0 -6 -0 -4 7 -0 -1 -3 0 1 2 -0 0 0 0 -0 -1 -1 -1 -0 -3 -3 -3 -1 -3 -3 -3 -1 -1 -1 0 -1 -2 -1 1 -2 -2 -2
-0 -0 -4 -2 4 3 -5 -8 6 -2 -1 -2 2 1 -1 0 -1 -1 0 -1 -1 -1 -0 -1 1 1 -2 -2 -4 -3 -2 -2 -2 -2 -2 -1 -3 -2 1 0 0 -2 -3
-2 -2 -5 -3 0 -1 -2 -4 -0 -0 0 2 1 1 1 -1 -1 -0 0 -0 -1 -2 1 -1 -1 2 -1 -2 -1 -2 -2 -2 -0 -2 -3 -2 -2 -1 -3 -5 -5 -1 -8
-1 -2 -3 -2 1 -2 0 -1 0 -0 3 2 1 1 2 0 -0 1 1 1 1 -1 0 1 -2 1 -2 -1 1 2 2 1 -0 -1 -0 -0 0 -0 1 -1 -2 -6 2
0 -1 -0 -0 -0 -2 0 0 1 0 3 3 2 4 1 1 0 1 2 2 1 0 -0 1 -2 3 -2 -0 -1 -1 -1 -1 -2 -0 -2 -1 -3 -2 -0 -2 -4 1 4
Height
3036 3042 3045 3048 3051 3055 3060 3062 3064 3068 3071 3074 3079 3082 3086 3090 3093 3096 3099 3101 3105 3108 3110 3114 3116 3119 3121 3124 3127 3129 3130 3133 3135 3136 3139 3140 3143 3145 3146 3148 3149 3151 3153
3028 3032 3037 3041 3045 3048 3050 3054 3056 3060 3065 3066 3070 3075 3079 3083 3086 3089 3092 3094 3097 3100 3104 3107 3109 3111 3114 3117 3119 3122 3124 3126 3128 3129 3131 3133 3136 3137 3140 3141 3143 3145 3146
3021 3026 3031 3034 3037 3040 3043 3045 3048 3052 3057 3058 3061 3067 3070 3075 3077 3081 3083 3087 3089 3091 3096 3099 3101 3103 3107 3109 3112 3113 3116 3118 3120 3123 3125 3126 3126 3130 3131 3134 3136 3138 3139
3014 3017 3020 3025 3030 3033 3036 3038 3041 3045 3048 3051 3053 3059 3063 3066 3068 3072 3075 3079 3080 3083 3087 3090 3093 3096 3099 3101 3103 3105 3107 3109 3112 3116 3116 3118 3120 3121 3123 3126 3128 3130 3131
3005 3009 3014 3018 3022 3025 3028 3031 3034 3038 3042 3045 3047 3052 3056 3059 3060 3064 3068 3070 3072 3075 3078 3082 3085 3087 3090 3093 3094 3097 3098 3101 3103 3105 3107 3109 3111 3112 3114 3116 3119 3121 3123
2997 3002 3006 3010 3014 3016 3020 3024 3028 3032 3034 3037 3040 3045 3048 3050 3053 3056 3059 3061 3064 3066 3070 3073 3076 3078 3081 3084 3086 3087 3089 3092 3094 3096 3098 3100 3102 3103 3105 3107 3110 3111 3114
2990 2994 3000 3004 3007 3012 3016 3019 3022 3025 3028 3031 3035 3038 3040 3042 3045 3048 3051 3053 3055 3058 3061 3064 3066 3069 3072 3075 3077 3078 3080 3083 3085 3087 3088 3090 3092 3093 3095 3096 3099 3102 3105
2984 2987 2991 2998 3004 3008 3011 3014 3017 3019 3022 3026 3029 3032 3034 3037 3039 3041 3043 3045 3048 3050 3052 3055 3057 3060 3063 3065 3067 3068 3070 3073 3074 3076 3078 3080 3081 3082 3084 3085 3087 3089 3092
2978 2980 2984 2991 2998 3003 3007 3009 3011 3014 3017 3020 3023 3026 3028 3030 3033 3035 3037 3038 3040 3042 3044 3046 3048 3051 3053 3055 3057 3058 3061 3063 3065 3066 3068 3069 3070 3072 3073 3074 3075 3076 3078
2977 2978 2983 2988 2993 2998 3001 3004 3007 3010 3013 3015 3017 3020 3022 3024 3026 3028 3029 3031 3032 3033 3036 3038 3040 3042 3044 3046 3047 3049 3051 3053 3054 3056 3057 3058 3059 3060 3062 3063 3064 3064 3064
2980 2982 2984 2987 2990 2993 2996 2999 3002 3004 3007 3009 3012 3014 3016 3017 3019 3020 3021 3022 3023 3025 3027 3029 3031 3032 3034 3035 3036 3038 3040 3042 3043 3045 3046 3047 3048 3049 3050 3051 3052 3052 3052
2981 2983 2985 2987 2987 2988 2991 2995 2998 3000 3001 3003 3005 3007 3008 3009 3010 3011 3012 3014 3015 3016 3018 3020 3021 3023 3023 3024 3025 3027 3029 3031 3032 3033 3034 3035 3036 3038 3038 3039 3040 3040 3041
2982 2981 2982 2983 2986 2987 2990 2992 2994 2995 2997 2998 2999 3000 3001 3002 3003 3004 3004 3006 3007 3008 3009 3011 3012 3013 3014 3015 3016 3017 3018 3020 3021 3022 3022 3024 3024 3025 3025 3026 3027 3028 3028
2980 2981 2980 2980 2981 2983 2985 2986 2987 2988 2990 2991 2993 2993 2993 2994 2995 2995 2996 2997 2998 3000 3000 3002 3002 3003 3004 3005 3006 3006 3007 3008 3009 3009 3010 3011 3011 3012 3013 3013 3014 3014 3015
2974 2975 2976 2978 2978 2978 2979 2980 2980 2981 2982 2984 2985 2986 2986 2986 2986 2987 2988 2989 2989 2990 2991 2992 2992 2993 2994 2995 2995 2995 2996 2996 2997 2998 2998 2998 2998 2999 2999 3000 3001 3001 3002
2970 2970 2970 2970 2971 2972 2972 2973 2974 2975 2976 2977 2978 2977 2978 2979 2980 2980 2980 2981 2981 2982 2982 2983 2984 2984 2984 2984 2984 2984 2984 2984 2985 2986 2986 2986 2986 2986 2986 2987 2987 2989 2988
2966 2965 2965 2965 2965 2965 2965 2966 2966 2966 2967 2968 2968 2969 2970 2972 2973 2973 2973 2974 2974 2974 2974 2974 2975 2975 2974 2975 2974 2973 2973 2973 2973 2973 2973 2972 2973 2972 2972 2974 2974 2974 2975
2960 2960 2959 2959 2959 2959 2959 2959 2959 2960 2960 2960 2960 2960 2961 2962 2964 2965 2965 2965 2966 2966 2965 2965 2965 2965 2965 2965 2964 2963 2962 2962 2961 2960 2960 2959 2959 2959 2958 2957 2958 2959 2960
2953 2952 2951 2950 2951 2952 2952 2951 2952 2953 2953 2954 2953 2952 2953 2954 2955 2955 2956 2957 2957 2957 2957 2956 2956 2957 2955 2955 2954 2953 2951 2950 2950 2948 2947 2945 2944 2945 2944 2941 2942 2943 2943
2944 2942 2942 2942 2942 2942 2942 2942 2944 2945 2946 2946 2945 2945 2946 2946 2947 2947 2948 2948 2949 2949 2948 2948 2947 2947 2946 2945 2944 2942 2940 2940 2938 2938 2935 2934 2931 2930 2930 2928 2927 2925 2926
2934 2933 2932 2932 2932 2932 2931 2931 2933 2935 2937 2936 2937 2937 2938 2939 2939 2940 2940 2940 2941 2940 2940 2940 2939 2938 2937 2936 2934 2932 2930 2928 2927 2926 2924 2922 2920 2918 2917 2916 2913 2910 2906
2924 2924 2921 2920 2920 2920 2920 2920 2921 2923 2924 2925 2927 2929 2930 2930 2931 2931 2931 2932 2932 2932 2932 2932 2931 2929 2927 2926 2925 2923 2920 2918 2916 2914 2912 2910 2908 2906 2904 2901 2899 2896 2890
2912 2911 2909 2909 2910 2908 2907 2907 2908 2909 2911 2912 2916 2918 2920 2921 2922 2923 2923 2923 2924 2924 2924 2924 2924 2922 2920 2918 2916 2914 2912 2909 2906 2903 2900 2898 2896 2894 2891 2888 2885 2878 2872
2900 2900 2898 2898 2898 2898 2896 2894 2894 2896 2898 2901 2905 2907 2910 2911 2913 2914 2914 2915 2916 2916 2917 2917 2916 2915 2913 2912 2910 2907 2905 2902 2898 2895 2891 2889 2886 2882 2878 2875 2872 2867 2855
2889 2888 2887 2887 2888 2887 2886 2885 2884 2885 2887 2890 2893 2896 2899 2901 2903 2905 2905 2906 2907 2908 2909 2909 2908 2907 2906 2905 2903 2901 2899 2896 2893 2890 2886 2882 2879 2876 2872 2867 2863 2855 2847
2880 2878 2877 2876 2877 2877 2876 2876 2875 2876 2877 2880 2883 2886 2889 2891 2893 2895 2896 2898 2899 2900 2901 2902 2901 2900 2899 2897 2895 2893 2891 2889 2886 2883 2879 2876 2872 2868 2865 2860 2853 2841 2837